Regional Weather Roundup
Issued by NWS

Home | Current Version | Previous Version | Text Only | Print | Product List | Glossary Off
Versions: 1 2 3 4 5 6 7 8 9 10 11 12 13 14 15 16 17 18 19 20 21 22 23 24 25 26 27

000
ASUS45 KCYS 282210
RWRWY

WYOMING REGIONAL WEATHER ROUNDUP
NATIONAL WEATHER SERVICE CHEYENNE WY
400 PM MDT TUE MAR 28 2017

NOTE:  "FAIR" INDICATES FEW OR NO CLOUDS BELOW 12,000 FEET
WITH NO SIGNIFICANT WEATHER AND/OR OBSTRUCTIONS TO VISIBILITY.

WYZ001-282300-
YELLOWSTONE NATIONAL PARK

CITY           SKY/WX    TMP DP  RH WIND       PRES   REMARKS
LK YELLOWSTONE   N/A     36  17  46 CALM      30.14R
W YELLOWSTONE  NOT AVBL

$$
WYZ002>013-054>058-071-098>099-282300-
NORTHERN WYOMING

CITY           SKY/WX    TMP DP  RH WIND       PRES   REMARKS
JACKSON        MOSUNNY   43  21  42 SW15G22   30.11S
CODY           FAIR      49  29  46 VRB5      30.08F
GREYBULL       FAIR      54  29  38 N9G20     30.05S
WORLAND        CLOUDY    48  40  73 E8        30.07S
SHERIDAN       CLOUDY    46  38  73 N8        30.11S
BUFFALO        CLOUDY    44  35  70 N21       30.09R
GILLETTE       CLOUDY    49  38  65 NW18      30.04F
HULETT         CLOUDY    48  41  76 NE12      30.04R
NEWCASTLE      DRIZZLE   45  43  93 SE7       30.03S

$$
WYZ014>020-022>026-101>103-282300-
CENTRAL WYOMING

CITY           SKY/WX    TMP DP  RH WIND       PRES   REMARKS
BIG PINEY      FAIR      48  19  31 N18       30.07R
PINEDALE       FAIR      45  21  39 NW18G25   30.07R
DUBOIS         FAIR      45  27  49 S9        30.05S
LANDER         CLOUDY    44  34  67 E3        30.06S
RIVERTON       PTSUNNY   49  30  48 N14G20    30.07R
CASPER         CLOUDY    43  35  73 NE17      30.05R
DOUGLAS        CLOUDY    42  38  85 N14       30.03R

$$
WYZ021-027>030-104>119-282300-
SOUTHERN WYOMING

CITY           SKY/WX    TMP DP  RH WIND       PRES   REMARKS
EVANSTON       FAIR      44  23  43 N21G30    30.10R
KEMMERER         N/A     41  28  60 W17G23    30.10R
ROCK SPRINGS   CLOUDY    40  31  70 N7        30.07R
DIXON            N/A     46  33  59 N21G35    29.99R
RAWLINS        CLOUDY    38  31  76 N21       30.04R WCI  28
SARATOGA         N/A     37  37 100 N16G28    30.00R WCI  28
LARAMIE        LGT RAIN  37  33  85 N18G25    29.95R WCI  27
CHEYENNE       CLOUDY    42  38  85 NE15G23   29.91R
TORRINGTON     LGT RAIN  44  42  93 NE16      29.97R FOG
PINE BLUFFS    CLOUDY    43  41  93 E8        29.93R FOG

$$




USA.gov is the U.S. government's official web portal to all federal, state and local government web resources and services.